カタログに戻る

COSMOS 2298 DEB

運用中LEO
NORAD 23433·DEBRIS·🇷🇺 Russia

打ち上げ Dec 20, 1994 から Plesetsk Cosmodrome

Loading…

次のパス (今後24時間)

TLE

最新Source: Space-Track

元期: Sep 14, 2026, 20:15 UTC

1 23433U 94083C   26257.84385593  .00000626  00000-0  18631-3 0  9992
2 23433  74.0048 123.4751 0008977  53.5122  74.2946 14.45213696663055

AllMySatでCOSMOS 2298 DEBをリアルタイム追跡

Download on the App Store